Date String (YYYY-MM-DD hh:mm:ss) UTC,Instrument flags,absolute air pressure of the measurement (hPa),sample flow rate (lpm),inlet stack bypass flow (lpm),air temperature of the measurement (°C),ambient temperature measured by the external sensor (°C),aerosol sample conditioner tube jacket temperature (°C),OPC LED temperature (°C),internal box temperature (°C),relative humidity of the measurement (%),span deviation,mass concentration of particles derived from Lorenz-Mie calculation of OPC scattering (μg/m³),mass concentration of particles derived from Lorenz-Mie calculation of OPC scattering (μg/m³),mass concentration of particles derived from Lorenz-Mie calculation of OPC scattering (μg/m³)
DateTimeUTC,F1_M11,P_M11,Q1_M11,Q2_M11,T1_M11,T2_M11,T3_M11,T4_M11,T5_M11,U1_M11,ZSPAN_M11,X2_M11,X0_M11,X1_M11
2023-09-15 04:00:00,SystemResetWarning,0836.6,5.01,000.00,028.4,027.1,000.0,036.8,030.0,31.8,0000.0,0001.74,0002.88,0001.16
2023-09-15 04:01:00,SystemResetWarning,0836.6,5.01,000.00,028.4,027.1,000.0,036.8,030.0,31.8,0000.0,0001.76,0002.95,0001.17
2023-09-15 04:02:00,SystemResetWarning,0836.6,5.00,000.00,028.4,027.1,000.0,036.8,030.0,31.9,0000.0,0001.76,0002.92,0001.19
2023-09-15 04:03:00,SystemResetWarning,0836.6,4.99,000.00,028.4,027.1,000.0,036.8,030.0,31.9,0000.0,0001.76,0002.90,0001.21
2023-09-15 04:04:00,SystemResetWarning,0836.6,4.99,000.00,028.4,027.1,000.0,036.8,030.0,31.8,0000.0,0001.81,0002.97,0001.24
2023-09-15 04:05:00,SystemResetWarning,0836.6,5.01,000.00,028.4,027.1,000.0,036.8,030.0,31.7,0000.0,0001.84,0003.01,0001.26
2023-09-15 04:06:00,SystemResetWarning,0836.6,5.00,000.00,028.4,027.1,000.0,036.8,030.0,31.7,0000.0,0001.86,0003.08,0001.28
2023-09-15 04:07:00,SystemResetWarning,0836.6,5.00,000.00,028.4,027.1,000.0,036.8,030.0,31.7,0000.0,0001.89,0003.24,0001.30
2023-09-15 04:08:00,SystemResetWarning,0836.6,5.00,000.00,028.4,027.1,000.0,036.8,030.0,31.6,0000.0,0001.91,0003.23,0001.33
2023-09-15 04:09:00,SystemResetWarning,0836.6,5.01,000.00,028.4,027.1,000.0,036.8,030.0,31.6,0000.0,0001.91,0003.23,0001.36
2023-09-15 04:10:00,SystemResetWarning,0836.6,5.00,000.00,028.4,027.1,000.0,036.8,030.0,31.7,0000.0,0001.91,0003.21,0001.38
2023-09-15 04:11:00,SystemResetWarning,0836.6,4.99,000.00,028.4,027.0,000.0,036.8,030.0,31.7,0000.0,0001.88,0003.29,0001.39
2023-09-15 04:12:00,SystemResetWarning,0836.6,4.99,000.00,028.4,027.0,000.0,036.8,030.0,31.6,0000.0,0001.88,0003.29,0001.40
2023-09-15 04:13:00,SystemResetWarning,0836.6,5.00,000.00,028.4,027.0,000.0,036.8,030.0,31.6,0000.0,0001.96,0003.44,0001.43
2023-09-15 04:14:00,SystemResetWarning,0836.6,5.00,000.00,028.4,027.0,000.0,036.8,030.0,31.8,0000.0,0001.99,0003.50,0001.45
2023-09-15 04:15:00,SystemResetWarning,0836.6,5.01,000.00,028.4,027.0,000.0,036.8,030.0,31.8,0000.0,0002.02,0003.52,0001.48
2023-09-15 04:16:00,SystemResetWarning,0836.6,5.01,000.00,028.4,027.0,000.0,036.8,030.0,31.9,0000.0,0002.08,0003.66,0001.52
2023-09-15 04:17:00,SystemResetWarning,0836.6,4.99,000.00,028.4,027.0,000.0,036.8,030.0,32.0,0000.0,0002.13,0003.72,0001.55
2023-09-15 04:18:00,SystemResetWarning,0836.6,5.00,000.00,028.4,027.0,000.0,036.8,030.0,31.9,0000.0,0002.19,0003.68,0001.58
2023-09-15 04:19:00,SystemResetWarning,0836.6,4.99,000.00,028.3,027.0,000.0,036.8,030.0,31.9,0000.0,0002.26,0003.80,0001.62
2023-09-15 04:20:00,SystemResetWarning,0836.6,4.99,000.00,028.4,027.0,000.0,036.8,030.0,32.1,0000.0,0002.28,0003.76,0001.65
2023-09-15 04:21:00,SystemResetWarning,0836.6,4.99,000.00,028.4,027.0,000.0,036.8,030.0,32.0,0000.0,0002.29,0003.72,0001.68
2023-09-15 04:22:00,SystemResetWarning,0836.6,5.01,000.00,028.3,027.0,000.0,036.8,030.0,32.0,0000.0,0002.31,0003.67,0001.71
2023-09-15 04:23:00,SystemResetWarning,0836.6,5.01,000.00,028.3,026.9,000.0,036.8,030.0,32.1,0000.0,0002.34,0003.65,0001.75
2023-09-15 04:24:00,SystemResetWarning,0836.6,4.99,000.00,028.3,027.0,000.0,036.8,030.0,32.1,0000.0,0002.34,0003.60,0001.79
2023-09-15 04:25:00,SystemResetWarning,0836.6,4.99,000.00,028.3,026.9,000.0,036.8,030.0,32.0,0000.0,0002.37,0003.67,0001.82
2023-09-15 04:26:00,SystemResetWarning,0836.6,5.00,000.00,028.3,026.9,000.0,036.8,030.0,32.0,0000.0,0002.38,0003.70,0001.82
2023-09-15 04:27:00,SystemResetWarning,0836.6,5.00,000.00,028.3,026.9,000.0,036.8,029.9,32.0,0000.0,0002.36,0003.64,0001.83
2023-09-15 04:28:00,SystemResetWarning,0836.6,5.01,000.00,028.3,026.8,000.0,036.8,029.9,32.1,0000.0,0002.37,0003.65,0001.84
2023-09-15 04:29:00,SystemResetWarning,0836.6,5.00,000.00,028.3,026.8,000.0,036.8,029.9,32.2,0000.0,0002.35,0003.62,0001.83
2023-09-15 04:30:00,SystemResetWarning,0836.6,5.00,000.00,028.3,026.8,000.0,036.8,029.9,32.1,0000.0,0002.33,0003.57,0001.80
2023-09-15 04:31:00,SystemResetWarning,0836.6,5.00,000.00,028.3,026.7,000.0,036.8,029.9,32.1,0000.0,0002.34,0003.56,0001.79
2023-09-15 04:32:00,SystemResetWarning,0836.6,5.00,000.00,028.2,026.7,000.0,036.8,029.9,32.1,0000.0,0002.31,0003.52,0001.77
2023-09-15 04:33:00,SystemResetWarning,0836.6,4.99,000.00,028.2,026.7,000.0,036.8,029.9,32.3,0000.0,0002.28,0003.50,0001.76
2023-09-15 04:34:00,SystemResetWarning,0836.6,4.99,000.00,028.2,026.7,000.0,036.8,029.8,32.3,0000.0,0002.30,0003.56,0001.74
2023-09-15 04:35:00,SystemResetWarning,0836.6,4.99,000.00,028.2,026.7,000.0,036.8,029.8,32.2,0000.0,0002.28,0003.54,0001.71
2023-09-15 04:36:00,SystemResetWarning,0836.6,5.01,000.00,028.2,026.7,000.0,036.8,029.8,32.2,0000.0,0002.28,0003.56,0001.67
2023-09-15 04:37:00,SystemResetWarning,0836.6,5.01,000.00,028.2,026.8,000.0,036.8,029.8,32.2,0000.0,0002.28,0003.57,0001.66
2023-09-15 04:38:00,SystemResetWarning,0836.6,5.00,000.00,028.2,026.8,000.0,036.8,029.8,32.2,0000.0,0002.24,0003.46,0001.66
2023-09-15 04:39:00,SystemResetWarning,0836.6,5.00,000.00,028.2,026.7,000.0,036.8,029.8,32.3,0000.0,0002.20,0003.45,0001.65
2023-09-15 04:40:00,SystemResetWarning,0836.6,5.00,000.00,028.2,026.7,000.0,036.8,029.8,32.3,0000.0,0002.20,0003.44,0001.65
2023-09-15 04:41:00,SystemResetWarning,0836.6,5.00,000.00,028.2,026.7,000.0,036.7,029.8,32.4,0000.0,0002.16,0003.58,0001.63
2023-09-15 04:42:00,SystemResetWarning,0836.6,5.00,000.00,028.2,026.7,000.0,036.7,029.8,32.3,0000.0,0002.07,0003.99,0001.60
2023-09-15 04:43:00,SystemResetWarning,0836.6,5.00,000.00,028.2,026.7,000.0,036.7,029.8,32.3,0000.0,0002.08,0004.05,0001.58
2023-09-15 04:44:00,SystemResetWarning,0836.6,4.99,000.00,028.2,026.7,000.0,036.7,029.8,32.4,0000.0,0002.11,0004.02,0001.59
2023-09-15 04:45:00,SystemResetWarning,0836.6,5.00,000.00,028.2,026.7,000.0,036.7,029.8,32.4,0000.0,0002.09,0003.94,0001.58
2023-09-15 04:46:00,SystemResetWarning,0836.6,5.00,000.00,028.2,026.7,000.0,036.7,029.7,32.4,0000.0,0002.06,0003.91,0001.57
2023-09-15 04:47:00,SystemResetWarning,0836.6,5.00,000.00,028.2,026.8,000.0,036.7,029.7,32.5,0000.0,0002.06,0003.90,0001.58
2023-09-15 04:48:00,SystemResetWarning,0836.6,5.00,000.00,028.2,026.8,000.0,036.7,029.8,32.5,0000.0,0002.04,0003.92,0001.57
2023-09-15 04:49:00,SystemResetWarning,0836.6,5.00,000.00,028.2,026.8,000.0,036.7,029.8,32.4,0000.0,0002.03,0004.35,0001.54
2023-09-15 04:50:00,SystemResetWarning,0836.6,5.00,000.00,028.2,026.8,000.0,036.7,029.8,32.4,0000.0,0002.02,0004.45,0001.51
2023-09-15 04:51:00,SystemResetWarning,0836.6,4.99,000.00,028.2,026.9,000.0,036.7,029.8,32.4,0000.0,0002.01,0004.47,0001.49
2023-09-15 04:52:00,SystemResetWarning,0836.6,4.99,000.00,028.2,026.9,000.0,036.7,029.8,32.3,0000.0,0002.00,0004.24,0001.49
2023-09-15 04:53:00,SystemResetWarning,0836.6,4.99,000.00,028.2,026.9,000.0,036.7,029.8,32.3,0000.0,0002.02,0003.79,0001.49
2023-09-15 04:54:00,SystemResetWarning,0836.6,5.01,000.00,028.2,026.9,000.0,036.7,029.8,32.4,0000.0,0002.02,0003.82,0001.48
2023-09-15 04:55:00,SystemResetWarning,0836.6,5.01,000.00,028.3,026.9,000.0,036.7,029.8,32.4,0000.0,0001.99,0003.74,0001.46
2023-09-15 04:56:00,SystemResetWarning,0836.6,5.01,000.00,028.3,026.9,000.0,036.8,029.9,32.4,0000.0,0001.97,0003.70,0001.45
2023-09-15 04:57:00,SystemResetWarning,0836.6,5.00,000.00,028.3,026.9,000.0,036.8,029.9,32.3,0000.0,0002.00,0003.76,0001.44
2023-09-15 04:58:00,SystemResetWarning,0836.6,5.00,000.00,028.3,026.9,000.0,036.8,029.9,32.3,0000.0,0002.00,0003.76,0001.44
2023-09-15 04:59:00,SystemResetWarning,0836.6,4.99,000.00,028.3,027.0,000.0,036.8,029.9,32.3,0000.0,0002.02,0003.67,0001.44
